User: anonymous   Login
Location: *
(50.6089°N, 2.2719°E)
Time: 11:16:47
(UTC+00:00)
Language:

STARLINK-79 - Orbit

View from above orbital plane
View from above orbital plane
View from above satellite
View from above satellite

Ground track
Ground track

The orbit data is extracted from the following two-line orbital elements,

1 44288U 19029BF  19340.25002315 -.00034337  00000-0 -19607-2 0  9999
2 44288  53.0065  11.6360 0001358 132.4844 331.4173 15.12155893 30776
Epoch (UTC): 06 December 2019 06:00:02
Eccentricity: 0.0001358
inclination: 53.0065°
perigee height: 528 km
apogee height: 530 km
right ascension of ascending node: 11.6360°
argument of perigee: 132.4844°
revolutions per day: 15.12155893
mean anomaly at epoch: 331.4173°
orbit number at epoch: 3077

The dashed part of the orbit path shows where the satellite is in the earth's shadow,  

DLR